| time (UTC) | temp F | wind direction | speed knots | gust knots | rain 1hr in | rain 24hr in | rain mn in | humidity % | barometer mb |
| 20260906225530 | 77 | 180 | 11.3 | 20.0 | 0.00 | 0.00 | 0.00 | 21 | 1012.2 |
| 20260906225032 | 77 | 212 | 13.0 | 20.9 | 0.00 | 0.00 | 0.00 | 21 | 1012.0 |
| 20260906224532 | 77 | 199 | 13.0 | 20.9 | 0.00 | 0.00 | 0.00 | 21 | 1012.2 |
| 20260906224030 | 78 | 159 | 12.2 | 22.6 | 0.00 | 0.00 | 0.00 | 21 | 1012.0 |
| 20260906223530 | 78 | 207 | 11.3 | 22.6 | 0.00 | 0.00 | 0.00 | 21 | 1012.2 |
| 20260906223032 | 78 | 191 | 11.3 | 20.0 | 0.00 | 0.00 | 0.00 | 21 | 1012.2 |
| 20260906222530 | 78 | 181 | 11.3 | 20.0 | 0.00 | 0.00 | 0.00 | 21 | 1011.9 |
| 20260906222031 | 78 | 199 | 10.4 | 17.4 | 0.00 | 0.00 | 0.00 | 21 | 1011.9 |
| 20260906221530 | 78 | 166 | 10.4 | 18.2 | 0.00 | 0.00 | 0.00 | 21 | 1012.0 |
| 20260906221032 | 79 | 150 | 10.4 | 18.2 | 0.00 | 0.00 | 0.00 | 21 | 1012.2 |
| 20260906220530 | 78 | 166 | 10.4 | 17.4 | 0.00 | 0.00 | 0.00 | 21 | 1012.2 |
| 20260906220030 | 79 | 188 | 10.4 | 17.4 | 0.00 | 0.00 | 0.00 | 20 | 1012.0 |
| 20260906215030 | 80 | 163 | 8.7 | 19.1 | 0.00 | 0.00 | 0.00 | 20 | 1012.3 |
| 20260906214530 | 79 | 182 | 9.6 | 17.4 | 0.00 | 0.00 | 0.00 | 20 | 1012.2 |
| 20260906214030 | 79 | 209 | 10.4 | 17.4 | 0.00 | 0.00 | 0.00 | 19 | 1012.3 |
| 20260906213531 | 80 | 175 | 9.6 | 17.4 | 0.00 | 0.00 | 0.00 | 19 | 1012.3 |
| 20260906212530 | 79 | 238 | 9.6 | 13.9 | 0.00 | 0.00 | 0.00 | 20 | 1012.3 |
| 20260906212032 | 79 | 215 | 10.4 | 19.1 | 0.00 | 0.00 | 0.00 | 21 | 1012.4 |
| 20260906211532 | 78 | 165 | 10.4 | 19.1 | 0.00 | 0.00 | 0.00 | 20 | 1012.7 |
| 20260906211030 | 78 | 189 | 9.6 | 15.6 | 0.00 | 0.00 | 0.00 | 20 | 1012.7 |
| 20260906210530 | 78 | 157 | 10.4 | 13.9 | 0.00 | 0.00 | 0.00 | 20 | 1012.7 |
| 20260906210031 | 78 | 158 | 11.3 | 19.1 | 0.00 | 0.00 | 0.00 | 21 | 1012.8 |
| 20260906205531 | 78 | 171 | 10.4 | 19.1 | 0.00 | 0.00 | 0.00 | 21 | 1012.8 |
| 20260906205030 | 78 | 190 | 10.4 | 18.2 | 0.00 | 0.00 | 0.00 | 21 | 1012.8 |
| 20260906204803 | 79 | 198 | 10.4 | 16.5 | 0.00 | 0.00 | 0.00 | 21 | 1012.9 |
| 20260906204031 | 79 | 200 | 11.3 | 20.0 | 0.00 | 0.00 | 0.00 | 21 | 1012.8 |
| 20260906203529 | 79 | 173 | 12.2 | 20.0 | 0.00 | 0.00 | 0.00 | 21 | 1012.9 |
| 20260906203034 | 78 | 155 | 12.2 | 22.6 | 0.00 | 0.00 | 0.00 | 22 | 1012.9 |
| 20260906202025 | 78 | 174 | 12.2 | 19.1 | 0.00 | 0.00 | 0.00 | 23 | 1012.9 |
| 20260906201527 | 79 | 166 | 9.6 | 19.1 | 0.00 | 0.00 | 0.00 | 22 | 1012.9 |
| 20260906201025 | 79 | 178 | 8.7 | 13.0 | 0.00 | 0.00 | 0.00 | 22 | 1012.9 |
| 20260906200525 | 79 | 171 | 7.8 | 13.0 | 0.00 | 0.00 | 0.00 | 22 | 1012.8 |
| 20260906200024 | 79 | 142 | 8.7 | 15.6 | 0.00 | 0.00 | 0.00 | 23 | 1012.8 |
| 20260906195526 | 79 | 193 | 8.7 | 15.6 | 0.00 | 0.00 | 0.00 | 22 | 1013.0 |
| 20260906195025 | 79 | 193 | 7.8 | 15.6 | 0.00 | 0.00 | 0.00 | 22 | 1013.1 |
| 20260906194524 | 79 | 193 | 7.0 | 13.0 | 0.00 | 0.00 | 0.00 | 22 | 1013.3 |
| 20260906194024 | 78 | 172 | 7.8 | 12.2 | 0.00 | 0.00 | 0.00 | 23 | 1013.3 |
| 20260906193521 | 78 | 172 | 7.8 | 13.0 | 0.00 | 0.00 | 0.00 | 23 | 1013.3 |
| 20260906193020 | 78 | 195 | 6.1 | 13.0 | 0.00 | 0.00 | 0.00 | 23 | 1013.3 |
| 20260906192020 | 78 | 141 | 3.5 | 5.2 | 0.00 | 0.00 | 0.00 | 23 | 1013.3 |
| 20260906191019 | 78 | 115 | 2.6 | 7.0 | 0.00 | 0.00 | 0.00 | 22 | 1013.4 |
| 20260906190018 | 78 | 159 | 3.5 | 8.7 | 0.00 | 0.00 | 0.00 | 22 | 1013.7 |
| 20260906185518 | 79 | 113 | 2.6 | 6.1 | 0.00 | 0.00 | 0.00 | 22 | 1013.7 |
| 20260906185016 | 79 | 116 | 2.6 | 6.1 | 0.00 | 0.00 | 0.00 | 22 | 1014.0 |
| 20260906184515 | 79 | 103 | 2.6 | 5.2 | 0.00 | 0.00 | 0.00 | 22 | 1014.1 |
| 20260906184015 | 78 | 88 | 2.6 | 6.1 | 0.00 | 0.00 | 0.00 | 23 | 1014.2 |
| 20260906183514 | 78 | 124 | 1.7 | 6.1 | 0.00 | 0.00 | 0.00 | 23 | 1014.5 |
| 20260906183016 | 78 | 141 | 2.6 | 6.1 | 0.00 | 0.00 | 0.00 | 22 | 1014.6 |
| 20260906182515 | 78 | 152 | 2.6 | 6.1 | 0.00 | 0.00 | 0.00 | 23 | 1014.7 |
| 20260906182014 | 77 | 133 | 1.7 | 6.1 | 0.00 | 0.00 | 0.00 | 23 | 1014.9 |
| 20260906181515 | 77 | 127 | 1.7 | 4.3 | 0.00 | 0.00 | 0.00 | 22 | 1015.1 |
| 20260906181014 | 77 | 108 | 3.5 | 9.6 | 0.00 | 0.00 | 0.00 | 23 | 1015.2 |
| 20260906175514 | 76 | 192 | 3.5 | 8.7 | 0.00 | 0.00 | 0.00 | 23 | 1015.5 |
| 20260906175012 | 76 | 167 | 2.6 | 7.0 | 0.00 | 0.00 | 0.00 | 24 | 1015.5 |
| 20260906174513 | 76 | 295 | 3.5 | 7.0 | 0.00 | 0.00 | 0.00 | 23 | 1015.5 |
| 20260906173510 | 76 | 76 | 2.6 | 6.1 | 0.00 | 0.00 | 0.00 | 23 | 1015.7 |
| 20260906173240 | 75 | 57 | 2.6 | 7.8 | 0.00 | 0.00 | 0.00 | 23 | 1015.8 |
| 20260906172508 | 75 | 26 | 2.6 | 7.8 | 0.00 | 0.00 | 0.00 | 23 | 1015.8 |
| 20260906172007 | 74 | 5 | 2.6 | 6.1 | 0.00 | 0.00 | 0.00 | 23 | 1015.8 |
| 20260906171504 | 74 | 46 | 3.5 | 7.8 | 0.00 | 0.00 | 0.00 | 24 | 1015.9 |
| 20260906171004 | 74 | 5 | 2.6 | 7.8 | 0.00 | 0.00 | 0.00 | 24 | 1015.9 |
| 20260906170505 | 73 | 47 | 2.6 | 7.0 | 0.00 | 0.00 | 0.00 | 24 | 1016.0 |
| 20260906170002 | 72 | 51 | 3.5 | 7.0 | 0.00 | 0.00 | 0.00 | 25 | 1016.0 |
| 20260906165504 | 72 | 37 | 2.6 | 5.2 | 0.00 | 0.00 | 0.00 | 25 | 1016.0 |
| 20260906165002 | 72 | 22 | 2.6 | 6.1 | 0.00 | 0.00 | 0.00 | 25 | 1016.3 |
| 20260906164504 | 72 | 24 | 2.6 | 6.1 | 0.00 | 0.00 | 0.00 | 25 | 1016.1 |
| 20260906164002 | 71 | 52 | 3.5 | 7.0 | 0.00 | 0.00 | 0.00 | 26 | 1016.3 |
| 20260906163001 | 70 | 0 | 1.7 | 6.1 | 0.00 | 0.00 | 0.00 | 27 | 1016.3 |
| 20260906162002 | 69 | 13 | 1.7 | 4.3 | 0.00 | 0.00 | 0.00 | 29 | 1016.4 |
| 20260906161502 | 68 | 16 | 1.7 | 4.3 | 0.00 | 0.00 | 0.00 | 30 | 1016.5 |
| 20260906161004 | 67 | 11 | 1.7 | 4.3 | 0.00 | 0.00 | 0.00 | 30 | 1016.5 |
| 20260906160502 | 67 | 17 | 1.7 | 6.1 | 0.00 | 0.00 | 0.00 | 31 | 1016.5 |
| 20260906160002 | 66 | 5 | 1.7 | 6.1 | 0.00 | 0.00 | 0.00 | 32 | 1016.5 |
| 20260906155502 | 66 | 9 | 1.7 | 4.3 | 0.00 | 0.00 | 0.00 | 32 | 1016.6 |
| 20260906155005 | 65 | 12 | 1.7 | 4.3 | 0.00 | 0.00 | 0.00 | 33 | 1016.6 |
| 20260906154502 | 65 | 344 | 0.9 | 3.5 | 0.00 | 0.00 | 0.00 | 33 | 1016.8 |
| 20260906154002 | 64 | 344 | 0.9 | 3.5 | 0.00 | 0.00 | 0.00 | 33 | 1016.6 |
| 20260906153503 | 64 | 331 | 0.9 | 1.7 | 0.00 | 0.00 | 0.00 | 35 | 1016.8 |
| 20260906153003 | 62 | 331 | 0.9 | 3.5 | 0.00 | 0.00 | 0.00 | 37 | 1016.9 |
| 20260906152501 | 62 | 331 | 0.9 | 3.5 | 0.00 | 0.00 | 0.00 | 38 | 1016.8 |
| 20260906152001 | 61 | 331 | 0.9 | 3.5 | 0.00 | 0.00 | 0.00 | 39 | 1016.9 |
| 20260906151502 | 60 | 331 | 0.9 | 3.5 | 0.00 | 0.00 | 0.00 | 40 | 1016.9 |
| 20260906150501 | 59 | 331 | 1.7 | 4.3 | 0.00 | 0.00 | 0.00 | 43 | 1016.9 |
| 20260906150001 | 59 | 313 | 0.9 | 4.3 | 0.00 | 0.00 | 0.00 | 44 | 1016.9 |
| 20260906145503 | 59 | 53 | 0.9 | 3.5 | 0.00 | 0.00 | 0.00 | 44 | 1017.0 |
| 20260906145002 | 58 | 57 | 0.0 | 1.7 | 0.00 | 0.00 | 0.00 | 44 | 1017.0 |
| 20260906144501 | 57 | 57 | 0.0 | 0.0 | 0.00 | 0.00 | 0.00 | 45 | 1017.1 |
| 20260906144002 | 56 | 57 | 0.0 | 0.0 | 0.00 | 0.00 | 0.00 | 47 | 1017.0 |
| 20260906143502 | 55 | 57 | 0.0 | 0.9 | 0.00 | 0.00 | 0.00 | 48 | 1017.0 |
| 20260906143002 | 54 | 57 | 0.0 | 0.9 | 0.00 | 0.00 | 0.00 | 49 | 1017.0 |
| 20260906142500 | 53 | 57 | 0.0 | 0.9 | 0.00 | 0.00 | 0.00 | 51 | 1017.0 |
| 20260906142000 | 53 | 57 | 0.9 | 3.5 | 0.00 | 0.00 | 0.00 | 52 | 1017.0 |
| 20260906141503 | 52 | 57 | 0.9 | 3.5 | 0.00 | 0.00 | 0.00 | 52 | 1017.0 |
| 20260906141001 | 52 | 57 | 0.9 | 3.5 | 0.00 | 0.00 | 0.00 | 53 | 1016.9 |
| 20260906140951 | 52 | 57 | 1.7 | 4.3 | 0.00 | 0.00 | 0.00 | 53 | 1016.9 |
| 20260906140002 | 52 | 60 | 1.7 | 5.2 | 0.00 | 0.00 | 0.00 | 53 | 1016.9 |
| 20260906135500 | 53 | 52 | 1.7 | 5.2 | 0.00 | 0.00 | 0.00 | 54 | 1016.8 |
| 20260906135000 | 53 | 252 | 0.9 | 3.5 | 0.00 | 0.00 | 0.00 | 52 | 1016.8 |
| 20260906134502 | 52 | 262 | 0.9 | 3.5 | 0.00 | 0.00 | 0.00 | 53 | 1016.6 |
| 20260906134004 | 51 | 282 | 1.7 | 3.5 | 0.00 | 0.00 | 0.00 | 53 | 1016.6 |
| 20260906133502 | 51 | 255 | 1.7 | 3.5 | 0.00 | 0.00 | 0.00 | 54 | 1016.8 |
| 20260906132503 | 50 | 224 | 1.7 | 6.1 | 0.00 | 0.00 | 0.00 | 56 | 1016.9 |
| 20260906132001 | 49 | 310 | 0.9 | 3.5 | 0.00 | 0.00 | 0.00 | 57 | 1016.6 |
| 20260906131501 | 49 | 316 | 1.7 | 3.5 | 0.00 | 0.00 | 0.00 | 57 | 1016.5 |
| 20260906131001 | 49 | 316 | 0.9 | 3.5 | 0.00 | 0.00 | 0.00 | 57 | 1016.6 |
| 20260906130502 | 48 | 316 | 0.9 | 3.5 | 0.00 | 0.00 | 0.00 | 57 | 1016.3 |
| 20260906130001 | 48 | 318 | 1.7 | 3.5 | 0.00 | 0.00 | 0.00 | 58 | 1016.4 |
| 20260906125501 | 47 | 318 | 1.7 | 3.5 | 0.00 | 0.00 | 0.00 | 58 | 1016.4 |
| 20260906125001 | 47 | 318 | 1.7 | 3.5 | 0.00 | 0.00 | 0.00 | 59 | 1016.4 |
| 20260906124503 | 47 | 318 | 1.7 | 3.5 | 0.00 | 0.00 | 0.00 | 59 | 1016.3 |
| 20260906124001 | 47 | 318 | 1.7 | 3.5 | 0.00 | 0.00 | 0.00 | 59 | 1016.3 |
| 20260906123002 | 47 | 318 | 1.7 | 3.5 | 0.00 | 0.00 | 0.00 | 58 | 1016.3 |
| 20260906122735 | 47 | 318 | 1.7 | 3.5 | 0.00 | 0.00 | 0.00 | 58 | 1016.3 |
| 20260906122001 | 47 | 315 | 1.7 | 3.5 | 0.00 | 0.00 | 0.00 | 57 | 1016.1 |
| 20260906121504 | 48 | 313 | 0.9 | 3.5 | 0.00 | 0.00 | 0.00 | 56 | 1016.1 |
| 20260906121002 | 49 | 306 | 0.0 | 1.7 | 0.00 | 0.00 | 0.00 | 55 | 1016.1 |
| 20260906120501 | 49 | 306 | 0.9 | 1.7 | 0.00 | 0.00 | 0.00 | 54 | 1016.1 |
| 20260906120001 | 50 | 305 | 0.9 | 1.7 | 0.00 | 0.00 | 0.00 | 54 | 1016.3 |
| 20260906115502 | 51 | 282 | 0.9 | 1.7 | 0.00 | 0.00 | 0.00 | 57 | 1016.1 |
| 20260906115001 | 51 | 282 | 0.9 | 1.7 | 0.00 | 0.00 | 0.00 | 54 | 1016.1 |
| 20260906114502 | 51 | 283 | 0.9 | 1.7 | 0.00 | 0.00 | 0.00 | 52 | 1016.3 |
| 20260906114002 | 50 | 283 | 0.0 | 0.9 | 0.00 | 0.00 | 0.00 | 53 | 1016.3 |
| 20260906113502 | 50 | 283 | 0.0 | 3.5 | 0.00 | 0.00 | 0.00 | 55 | 1016.3 |
| 20260906112501 | 50 | 283 | 0.9 | 3.5 | 0.00 | 0.00 | 0.00 | 55 | 1016.4 |
| 20260906112234 | 50 | 283 | 0.9 | 3.5 | 0.00 | 0.00 | 0.00 | 56 | 1016.5 |
| 20260906111004 | 49 | 283 | 1.7 | 4.3 | 0.00 | 0.00 | 0.00 | 55 | 1016.4 |
| 20260906110459 | 50 | 68 | 1.7 | 3.5 | 0.00 | 0.00 | 0.00 | 53 | 1016.4 |
| 20260906105953 | 51 | 47 | 1.7 | 4.3 | 0.00 | 0.00 | 0.00 | 51 | 1016.3 |
| 20260906105452 | 52 | 47 | 2.6 | 4.3 | 0.00 | 0.00 | 0.00 | 49 | 1016.3 |
| 20260906104949 | 53 | 49 | 3.5 | 6.1 | 0.00 | 0.00 | 0.00 | 48 | 1016.1 |
| 20260906104450 | 53 | 337 | 4.3 | 6.1 | 0.00 | 0.00 | 0.00 | 48 | 1016.0 |
| 20260906103447 | 53 | 330 | 2.6 | 5.2 | 0.00 | 0.00 | 0.00 | 49 | 1016.1 |
| 20260906102948 | 53 | 348 | 3.5 | 5.2 | 0.00 | 0.00 | 0.00 | 48 | 1016.1 |
| 20260906101948 | 53 | 343 | 4.3 | 6.1 | 0.00 | 0.00 | 0.00 | 49 | 1016.0 |
| 20260906101445 | 53 | 338 | 3.5 | 6.1 | 0.00 | 0.00 | 0.00 | 49 | 1016.0 |
| 20260906100947 | 53 | 345 | 2.6 | 5.2 | 0.00 | 0.00 | 0.00 | 50 | 1015.9 |
| 20260906100447 | 52 | 342 | 2.6 | 4.3 | 0.00 | 0.00 | 0.00 | 50 | 1015.9 |
| 20260906100216 | 53 | 346 | 2.6 | 4.3 | 0.00 | 0.00 | 0.00 | 48 | 1015.8 |
| 20260906095447 | 54 | 340 | 2.6 | 4.3 | 0.00 | 0.00 | 0.00 | 47 | 1015.7 |
| 20260906094946 | 54 | 333 | 0.9 | 4.3 | 0.00 | 0.00 | 0.00 | 47 | 1015.7 |
| 20260906094444 | 54 | 328 | 0.9 | 2.6 | 0.00 | 0.00 | 0.00 | 47 | 1015.7 |
| 20260906092941 | 54 | 328 | 0.0 | 1.7 | 0.00 | 0.00 | 0.00 | 48 | 1015.4 |
| 20260906092440 | 54 | 328 | 0.9 | 1.7 | 0.00 | 0.00 | 0.00 | 48 | 1015.4 |
| 20260906091941 | 54 | 328 | 0.0 | 0.9 | 0.00 | 0.00 | 0.00 | 50 | 1015.4 |
| 20260906091440 | 54 | 328 | 0.0 | 0.0 | 0.00 | 0.00 | 0.00 | 50 | 1015.4 |
| 20260906090940 | 54 | 328 | 0.0 | 0.9 | 0.00 | 0.00 | 0.00 | 50 | 1015.4 |
| 20260906090440 | 54 | 328 | 0.0 | 0.9 | 0.00 | 0.00 | 0.00 | 49 | 1015.4 |
| 20260906085937 | 54 | 328 | 0.0 | 0.9 | 0.00 | 0.00 | 0.00 | 48 | 1015.3 |
| 20260906084935 | 55 | 328 | 0.0 | 1.7 | 0.00 | 0.00 | 0.00 | 47 | 1015.3 |
| 20260906084437 | 55 | 328 | 0.0 | 0.9 | 0.00 | 0.00 | 0.00 | 46 | 1015.2 |
| 20260906083936 | 55 | 328 | 0.9 | 3.5 | 0.00 | 0.00 | 0.00 | 46 | 1015.2 |
| 20260906083437 | 55 | 328 | 1.7 | 4.3 | 0.00 | 0.00 | 0.00 | 46 | 1015.2 |
| 20260906082937 | 55 | 328 | 3.5 | 5.2 | 0.00 | 0.00 | 0.00 | 45 | 1015.3 |
| 20260906082438 | 55 | 331 | 3.5 | 5.2 | 0.00 | 0.00 | 0.00 | 45 | 1015.2 |
| 20260906081938 | 55 | 345 | 3.5 | 5.2 | 0.00 | 0.00 | 0.00 | 45 | 1015.2 |
| 20260906081429 | 55 | 344 | 1.7 | 5.2 | 0.00 | 0.00 | 0.00 | 45 | 1015.2 |
| 20260906075931 | 57 | 344 | 0.9 | 3.5 | 0.00 | 0.00 | 0.00 | 42 | 1015.3 |
| 20260906075431 | 58 | 308 | 0.0 | 0.9 | 0.00 | 0.00 | 0.00 | 43 | 1015.3 |
| 20260906074931 | 58 | 305 | 0.0 | 0.0 | 0.00 | 0.00 | 0.00 | 43 | 1015.3 |
| 20260906074430 | 59 | 305 | 0.0 | 0.9 | 0.00 | 0.00 | 0.00 | 42 | 1015.3 |
| 20260906073930 | 59 | 305 | 0.0 | 0.9 | 0.00 | 0.00 | 0.00 | 41 | 1015.3 |
| 20260906073429 | 59 | 305 | 0.0 | 0.9 | 0.00 | 0.00 | 0.00 | 41 | 1015.3 |
| 20260906072429 | 59 | 305 | 0.9 | 3.5 | 0.00 | 0.00 | 0.00 | 40 | 1015.3 |
| 20260906071928 | 59 | 306 | 1.7 | 4.3 | 0.00 | 0.00 | 0.00 | 40 | 1015.3 |
| 20260906071431 | 59 | 311 | 1.7 | 4.3 | 0.00 | 0.00 | 0.00 | 40 | 1015.3 |
| 20260906070929 | 60 | 333 | 0.9 | 3.5 | 0.00 | 0.00 | 0.00 | 40 | 1015.3 |
| 20260906070431 | 60 | 333 | 0.9 | 2.6 | 0.00 | 0.00 | 0.00 | 40 | 1015.3 |
| 20260906065929 | 60 | 345 | 0.9 | 3.5 | 0.00 | 0.00 | 0.00 | 39 | 1015.3 |
| 20260906065431 | 61 | 5 | 0.9 | 3.5 | 0.00 | 0.00 | 0.00 | 38 | 1015.3 |
| 20260906064928 | 62 | 149 | 0.0 | 0.9 | 0.00 | 0.00 | 0.00 | 38 | 1015.3 |
| 20260906064428 | 62 | 149 | 0.9 | 1.7 | 0.00 | 0.00 | 0.00 | 37 | 1015.3 |
| 20260906062930 | 63 | 152 | 0.9 | 3.5 | 0.00 | 0.00 | 0.00 | 36 | 1015.2 |
| 20260906062431 | 63 | 152 | 0.9 | 3.5 | 0.00 | 0.00 | 0.00 | 35 | 1015.3 |
| 20260906061428 | 64 | 158 | 0.9 | 4.3 | 0.00 | 0.00 | 0.00 | 34 | 1015.2 |
| 20260906060930 | 64 | 158 | 0.9 | 5.2 | 0.00 | 0.00 | 0.00 | 34 | 1015.3 |
| 20260906060432 | 64 | 162 | 1.7 | 5.2 | 0.00 | 0.00 | 0.00 | 33 | 1015.3 |
| 20260906055929 | 65 | 160 | 2.6 | 6.1 | 0.00 | 0.00 | 0.00 | 33 | 1015.3 |
| 20260906055429 | 65 | 152 | 3.5 | 6.1 | 0.00 | 0.00 | 0.00 | 33 | 1015.2 |
| 20260906054931 | 65 | 146 | 2.6 | 5.2 | 0.00 | 0.00 | 0.00 | 33 | 1015.2 |
| 20260906054430 | 65 | 144 | 0.9 | 4.3 | 0.00 | 0.00 | 0.00 | 33 | 1015.2 |
| 20260906053929 | 65 | 139 | 0.9 | 4.3 | 0.00 | 0.00 | 0.00 | 33 | 1015.2 |
| 20260906053429 | 65 | 128 | 0.0 | 3.5 | 0.00 | 0.00 | 0.00 | 33 | 1015.2 |
| 20260906052931 | 66 | 134 | 1.7 | 5.2 | 0.00 | 0.00 | 0.00 | 33 | 1015.2 |
| 20260906052429 | 66 | 150 | 2.6 | 6.1 | 0.00 | 0.00 | 0.00 | 31 | 1015.1 |
| 20260906051928 | 67 | 163 | 2.6 | 6.1 | 0.00 | 0.00 | 0.00 | 30 | 1015.1 |
| 20260906051428 | 67 | 161 | 1.7 | 4.3 | 0.00 | 0.00 | 0.00 | 30 | 1015.1 |
| 20260906050930 | 67 | 167 | 2.6 | 6.1 | 0.00 | 0.00 | 0.00 | 30 | 1015.2 |
| 20260906050429 | 67 | 184 | 3.5 | 6.1 | 0.00 | 0.00 | 0.00 | 29 | 1015.1 |
| 20260906045929 | 67 | 195 | 3.5 | 6.1 | 0.00 | 0.00 | 0.00 | 30 | 1015.2 |
| 20260906044929 | 67 | 188 | 5.2 | 7.8 | 0.00 | 0.00 | 0.00 | 29 | 1015.1 |
| 20260906044430 | 68 | 202 | 5.2 | 8.7 | 0.00 | 0.00 | 0.00 | 29 | 1015.2 |
| 20260906042928 | 69 | 205 | 6.1 | 10.4 | 0.00 | 0.00 | 0.00 | 27 | 1015.2 |
| 20260906042429 | 70 | 203 | 6.1 | 10.4 | 0.00 | 0.00 | 0.00 | 27 | 1015.2 |
| 20260906041428 | 70 | 203 | 5.2 | 9.6 | 0.00 | 0.00 | 0.00 | 27 | 1015.3 |
| 20260906040928 | 69 | 194 | 5.2 | 9.6 | 0.00 | 0.00 | 0.00 | 27 | 1015.2 |
| 20260906040430 | 69 | 191 | 5.2 | 8.7 | 0.00 | 0.00 | 0.00 | 27 | 1015.2 |
| 20260906035929 | 69 | 202 | 5.2 | 7.8 | 0.00 | 0.00 | 0.00 | 27 | 1015.2 |
| 20260906035429 | 70 | 202 | 6.1 | 8.7 | 0.00 | 0.00 | 0.00 | 27 | 1015.1 |
| 20260906034930 | 70 | 194 | 6.1 | 8.7 | 0.00 | 0.00 | 0.00 | 27 | 1015.1 |
| 20260906034430 | 70 | 181 | 5.2 | 8.7 | 0.00 | 0.00 | 0.00 | 27 | 1015.1 |
| 20260906033930 | 70 | 185 | 4.3 | 8.7 | 0.00 | 0.00 | 0.00 | 28 | 1015.1 |
| 20260906033430 | 70 | 192 | 2.6 | 8.7 | 0.00 | 0.00 | 0.00 | 28 | 1015.1 |
| 20260906032429 | 70 | 155 | 0.9 | 3.5 | 0.00 | 0.00 | 0.00 | 29 | 1015.1 |
| 20260906031930 | 70 | 163 | 2.6 | 5.2 | 0.00 | 0.00 | 0.00 | 28 | 1014.9 |
| 20260906031429 | 71 | 146 | 4.3 | 6.1 | 0.00 | 0.00 | 0.00 | 28 | 1014.8 |
| 20260906030931 | 71 | 166 | 5.2 | 7.8 | 0.00 | 0.00 | 0.00 | 27 | 1014.8 |
| 20260906030428 | 71 | 184 | 5.2 | 7.8 | 0.00 | 0.00 | 0.00 | 27 | 1014.7 |
| 20260906025928 | 71 | 186 | 4.3 | 7.8 | 0.00 | 0.00 | 0.00 | 27 | 1014.7 |
| 20260906025429 | 71 | 185 | 4.3 | 7.8 | 0.00 | 0.00 | 0.00 | 27 | 1014.6 |
| 20260906024932 | 71 | 194 | 4.3 | 7.8 | 0.00 | 0.00 | 0.00 | 27 | 1014.6 |
| 20260906024429 | 71 | 176 | 4.3 | 7.8 | 0.00 | 0.00 | 0.00 | 27 | 1014.6 |
| 20260906023928 | 72 | 180 | 5.2 | 7.8 | 0.00 | 0.00 | 0.00 | 27 | 1014.6 |
| 20260906023429 | 72 | 190 | 4.3 | 7.0 | 0.00 | 0.00 | 0.00 | 27 | 1014.5 |
| 20260906022429 | 72 | 184 | 4.3 | 6.1 | 0.00 | 0.00 | 0.00 | 26 | 1014.3 |
| 20260906021929 | 73 | 167 | 4.3 | 7.0 | 0.00 | 0.00 | 0.00 | 26 | 1014.2 |
| 20260906021429 | 73 | 177 | 4.3 | 7.0 | 0.00 | 0.00 | 0.00 | 25 | 1014.2 |
| 20260906020931 | 73 | 173 | 5.2 | 7.0 | 0.00 | 0.00 | 0.00 | 24 | 1014.2 |
| 20260906020429 | 74 | 184 | 5.2 | 7.0 | 0.00 | 0.00 | 0.00 | 24 | 1014.3 |
| 20260906015930 | 74 | 187 | 5.2 | 10.4 | 0.00 | 0.00 | 0.00 | 24 | 1014.2 |
| 20260906014929 | 75 | 178 | 7.0 | 12.2 | 0.00 | 0.00 | 0.00 | 23 | 1014.2 |
| 20260906014429 | 76 | 192 | 7.8 | 13.0 | 0.00 | 0.00 | 0.00 | 23 | 1014.1 |
| 20260906013929 | 76 | 202 | 8.7 | 15.6 | 0.00 | 0.00 | 0.00 | 23 | 1014.1 |
| 20260906012929 | 77 | 186 | 7.8 | 13.0 | 0.00 | 0.00 | 0.00 | 22 | 1014.1 |
| 20260906012430 | 77 | 169 | 7.8 | 12.2 | 0.00 | 0.00 | 0.00 | 21 | 1014.1 |
| 20260906011930 | 78 | 186 | 8.7 | 13.9 | 0.00 | 0.00 | 0.00 | 21 | 1014.1 |
| 20260906011431 | 78 | 179 | 7.8 | 13.9 | 0.00 | 0.00 | 0.00 | 20 | 1014.2 |
| 20260906010929 | 79 | 170 | 8.7 | 13.9 | 0.00 | 0.00 | 0.00 | 20 | 1014.1 |
| 20260906010430 | 79 | 165 | 9.6 | 13.9 | 0.00 | 0.00 | 0.00 | 19 | 1014.2 |
| 20260906005928 | 79 | 183 | 9.6 | 19.1 | 0.00 | 0.00 | 0.00 | 19 | 1014.1 |
| 20260906005430 | 79 | 182 | 10.4 | 19.1 | 0.00 | 0.00 | 0.00 | 19 | 1014.2 |
| 20260906004929 | 80 | 192 | 9.6 | 17.4 | 0.00 | 0.00 | 0.00 | 20 | 1014.1 |
| 20260906004429 | 80 | 170 | 8.7 | 17.4 | 0.00 | 0.00 | 0.00 | 19 | 1014.1 |
| 20260906003929 | 80 | 183 | 8.7 | 18.2 | 0.00 | 0.00 | 0.00 | 19 | 1014.1 |
| 20260906003430 | 80 | 192 | 9.6 | 18.2 | 0.00 | 0.00 | 0.00 | 19 | 1014.1 |
| 20260906002928 | 80 | 163 | 9.6 | 15.6 | 0.00 | 0.00 | 0.00 | 19 | 1013.9 |
| 20260906002429 | 81 | 159 | 9.6 | 15.6 | 0.00 | 0.00 | 0.00 | 19 | 1014.0 |
| 20260906001929 | 81 | 165 | 9.6 | 15.6 | 0.00 | 0.00 | 0.00 | 19 | 1014.0 |
| 20260906001429 | 81 | 179 | 9.6 | 17.4 | 0.00 | 0.00 | 0.00 | 19 | 1013.9 |
| 20260906000429 | 81 | 183 | 8.7 | 16.5 | 0.00 | 0.00 | 0.00 | 19 | 1013.9 |
| 20260905235929 | 81 | 173 | 8.7 | 15.6 | 0.00 | 0.00 | 0.00 | 18 | 1013.9 |
| 20260905235430 | 81 | 166 | 8.7 | 13.9 | 0.00 | 0.00 | 0.00 | 18 | 1013.9 |
| 20260905234930 | 81 | 160 | 9.6 | 13.9 | 0.00 | 0.00 | 0.00 | 18 | 1013.7 |
| 20260905234429 | 81 | 187 | 9.6 | 13.9 | 0.00 | 0.00 | 0.00 | 18 | 1013.9 |
| 20260905232924 | 81 | 173 | 8.7 | 16.5 | 0.00 | 0.00 | 0.00 | 18 | 1013.7 |
| 20260905232417 | 81 | 153 | 9.6 | 16.5 | 0.00 | 0.00 | 0.00 | 18 | 1013.9 |
| 20260905231913 | 82 | 198 | 8.7 | 16.5 | 0.00 | 0.00 | 0.00 | 18 | 1013.7 |
| 20260905231406 | 82 | 181 | 7.8 | 16.5 | 0.00 | 0.00 | 0.00 | 18 | 1013.9 |
| 20260905230906 | 81 | 144 | 6.1 | 10.4 | 0.00 | 0.00 | 0.00 | 19 | 1013.9 |